Location: Chervonnoye
(48.6000°N, 34.4000°E)
Time: 22:46:02
(UTC+00:00)

RS-44 - Pass Details

Date: 30 November 2022
Orbit: 1174 x 1511 km, 82.5° (Epoch: 01 February)

Event Time Altitude Azimuth Distance (km) Brightness Sun altitude
Exits shadow 02:28:04 46° 252° (WSW) 1,821 ? -26.3°
Maximum altitude 02:29:50 53° 288° (WNW) 1,713 ? -26.0°
Drops below altitude 10° 02:38:20 10° 4° (N) 3,632 ? -24.6°
Sets 02:41:26 0° 10° (N) 4,639 ? -24.1°
